Regional Weather Roundup
Issued by NWS

Home | Current Version | Previous Version | Text Only | Print | Product List | Glossary On
Versions: 1 2 3 4 5 6 7 8 9 10 11 12 13 14 15 16 17 18 19 20 21 22 23 24 25 26 27 28 29 30 31 32 33 34 35 36 37 38 39 40 41 42 43 44 45 46 47 48 49 50
000
ASUS46 KSTO 211815
RWRCA

NORTHERN AND CENTRAL CA REGIONAL WEATHER ROUNDUP
NATIONAL WEATHER SERVICE SACRAMENTO CA
1000 AM PST TUE FEB 21 2017

NOTE: FAIR INDICATES FEW OR NO CLOUDS BELOW 12,000 FEET WITH NO
SIGNIFICANT WEATHER AND/OR OBSTRUCTIONS TO VISIBILITY.

CAZ001-003-211900-
NORTHWEST AREA

CITY           SKY/WX    TMP DP  RH WIND       PRES   REMARKS
CRESCENT CITY  MOSUNNY   55  46  71 S18       30.09R
UKIAH          CLOUDY    48  44  86 CALM      30.19R
$$

CAZ006-505>513-211900-
BAY AREA

CITY           SKY/WX    TMP DP  RH WIND       PRES   REMARKS
SANTA ROSA     PTSUNNY   55  46  71 W12       30.18R
SAN RAFAEL     N/A       52  MM  MM MISG
NAPA           PTSUNNY   59  51  75 SW7       30.20R
CONCORD        PTSUNNY   59  49  69 W12       30.21R
OAKLAND CITY   N/A      MM  MM  MM MISG
OAKLAND        PTSUNNY   59  53  80 S12       30.22R
SAN FRAN CITY  N/A       56  MM  80 MISG
SAN FRAN ARPT  CLOUDY    56  47  71 SE5       30.22R
LIVERMORE      LGT RAIN  54  50  86 SW5       30.21R
HAYWARD        CLOUDY    56  47  71 S10       30.22R
REDWOOD CITY   N/A       MM  MM  MM MISG
MOFFETT ARPT   PTSUNNY   59  47  64 CALM      30.23R
SAN JOSE ARPT  PTSUNNY   55  51  86 E6        30.23R
$$
CAZ034-037-514>518-211900-
CENTRAL COAST

CITY           SKY/WX    TMP DP  RH WIND       PRES   REMARKS
WATSONVILLE    CLOUDY    58  56  93 S12       30.24S
SALINAS        MOSUNNY   59  52  77 CALM      30.24R
MONTEREY       PTSUNNY   58  51  78 S14G23    30.24R
SAN LUIS OBISP CLOUDY    61  57  87 SW7       30.29R
SANTA MARIA    LGT RAIN  59  59 100 S3        30.30S FOG
$$
CAZ015-016-211900-
NORTHERN SACRAMENTO VALLEY

CITY           SKY/WX    TMP DP  RH WIND       PRES   REMARKS
REDDING        PTSUNNY   54  44  69 SW12      30.11R
RED BLUFF      PTSUNNY   54  47  77 SE15      30.13R
OROVILLE       MOSUNNY   56  48  74 SE15      30.19R
$$
CAZ016>018-211900-
SOUTHERN SACRAMENTO VALLEY

CITY           SKY/WX    TMP DP  RH WIND       PRES   REMARKS
AUBURN         PTSUNNY   50  46  87 S7        30.20R
LINCOLN        FAIR      54  46  76 S12       30.18R
MARYSVILLE     MOSUNNY   57  47  69 SW12      30.19R
SAC INTL ARPT  MOSUNNY   54  50  86 S9        30.18R
MATHER AIRPORT CLOUDY    55  50  82 S12G18    30.21R
DOWNTOWN SAC   N/A       57  MM  MM MISG
SAC EXEC ARPT  MOSUNNY   56  50  80 SW10G20   30.20R
VACAVILLE      MOSUNNY   57  49  74 SW13G21   30.19R
$$
CAZ019>021-211900-
SAN JOAQUIN VALLEY

CITY           SKY/WX    TMP DP  RH WIND       PRES   REMARKS
STOCKTON       LGT RAIN  56  53  90 SW7       30.22R
MODESTO        PTSUNNY   62  51  67 S7        30.21R
MERCED         PTSUNNY   62  52  69 SW8       30.23R
LEMOORE        PTSUNNY   61  55  81 SE6       30.25R
FRESNO         PTSUNNY   63  51  65 SE8       30.25S
HANFORD        CLOUDY    61  57  87 S3        30.26R
PORTERVILLE    MOSUNNY   66  54  65 NW6       30.26R
BAKERSFIELD    MOSUNNY   68  48  48 W3        30.24R
$$
CAZ011-012-071-211900-
NORTHERN MOUNTAINS

CITY           SKY/WX    TMP DP  RH WIND       PRES   REMARKS
YREKA          MOSUNNY   44  35  70 SW7       30.02R
MOUNT SHASTA   MOSUNNY   42  34  73 VRB3      30.01R
ALTURAS        SNOW      33  33 100 SW10      30.01R VSB 1/2 WCI  25
$$
CAZ011-012-071-211900-
SIERRA NEVADA MTNS

CITY           SKY/WX    TMP DP  RH WIND       PRES   REMARKS
TRUCKEE        SNOW      30  28  93 SW7       30.09R VSB 1/4 WCI  23
TAHOE VLY ARPT HVY SNOW  31  29  92 SW12G21   30.10R VSB<1/4 WCI  22
MAMMOTH LAKES  LGT SNOW  34  31  90 N12       30.15S WCI  25
$$




USA.gov is the U.S. government's official web portal to all federal, state and local government web resources and services.